Location: Alafon
(8.4500°N, 4.2333°E)
Time: 01:27:34
(UTC+00:00)

NOAA 11 - Pass Details

Date: 05 July 2020
Orbit: 833 x 849 km, 98.4° (Epoch: 06 August)

Event Time Altitude Azimuth Distance (km) Brightness Sun altitude
Rises 18:25:51 0° 171° (S) 3,390 7.0 -5.4°
Reaches altitude 10° 18:28:13 10° 173° (S) 2,452 6.3 -5.9°
Maximum altitude 18:33:38 74° 258° (WSW) 871 4.5 -7.2°
Drops below altitude 10° 18:39:03 10° 343° (NNW) 2,440 7.2 -8.4°
Sets 18:41:24 0° 345° (NNW) 3,372 8.0 -8.9°
